COSMOS 2079 (GLONASS)

Satellite information

Favourite Embed

Satellite Type and Status

PAYLOADIN ORBIT

Key statistics

Satellite COSMOS 2079 (GLONASS) at a glance.

Uptime

12896

Days in orbit

Revolutions

≈ 2.1

Per day

Orbit

MEO

Medium Earth Orbit

Inclination

64.9

Latest

Satellite identification and parameters

Extended collection of information and parameters for COSMOS 2079 (GLONASS).

Object identification

Identified? True

Debris? False

Object name: COSMOS 2079 (GLONASS)

International designator: 1990-045A

Object number (NORAD): 20619

Object ID (CCSDS): 20619

Country: COMMONWEALTH OF INDEPENDENT STATES (CIS)

Current information (Y/N): Y

RCS size: LARGE

Orbital parameters

Period: 675.729 minutes

Inclination: 64.8909 deg

SMA: 25507.928 km

Apoapsis: 19251.755 km

Periapsis: 19007.832 km

RAAN: 318.4493 deg

Eccentricy: 0.00478131

Argument of periapsis: 206.6755 deg

Mean anomaly: 166.4169 deg

Mean motion: 2.13103202 rev/day

Mean motion (dot): -0.00000057 rev/day2

B* drag term: 0.0 1/REarth

Two-line elements (TLE)

Creation date: Aug. 31, 2025, 11:35 a.m.

Reference frame: TEME

Reference center: EARTH

Epoch: Aug. 31, 2025, 6:20 a.m. UTC

TLE line 0: 0 COSMOS 2079 (GLONASS)

TLE line 1: 1 20619U 90045A 25243.26395488 -.00000057 00000-0 00000-0 0 9990

TLE line 2: 2 20619 64.8909 318.4493 0047813 206.6755 166.4169 2.13103202274585

Live tracking on map

Real-time ground track for satellite COSMOS 2079 (GLONASS).

In-orbit conjunctions

There are no conjunctions computed for COSMOS 2079 (GLONASS), at the moment. Check back to stay up to date, as we update our databases every day.

Go to all conjunctions

Associated space launch

GLONASS navigation satellites

COSMOS 2079 (GLONASS) was lifted into orbit during the mission ‘Proton | Uragan 36 to 38’, on board a Proton space rocket.

The launch took place on May 19, 1990, 8:32 a.m. from 200/40.

For more information about the launch, click the button.

Launch to space Proton | Uragan 36 to 38
Proton | Uragan 36 to 38

Agency: N/A

Status: Launch Successful

Launch date: May 19, 1990, 8:32 a.m. UTC

Rocket: Proton

Launch pad: 200/40

Location: Baikonur Cosmodrome, Republic of Kazakhstan

...

Latest news about this satellite

There are no fresh news available about this satellite. Check back as we update our databases every day.


Newsletter sign-up

Weekly statistics, charts and insights to help you stay on top of the space industry.